• In Germany
  • List of Countries
  • For 7 days
  • Water Temperature
  • Satellite Maps
  • Weather Map
  • Weather Widgets
  • user-avatar
    Login

    Hourly Weather Klerwo

    Today, 24 November, Friday

    Time Temperature Precipitation Wind Pressure Humidity
    00:00 +9°C° 0 mm 3 mps 723 mmHg 94%
    01:00 +10°C° 0.4 mm 4 mps 723 mmHg 93%
    02:00 +9°C° 0.4 mm 5 mps 723 mmHg 92%
    03:00 +9°C° 0.4 mm 6 mps 722 mmHg 91%
    04:00 +9°C° 0.1 mm 7 mps 722 mmHg 90%
    05:00 +9°C° 0.1 mm 7 mps 722 mmHg 89%
    06:00 +9°C° 0.1 mm 7 mps 722 mmHg 88%
    07:00 +9°C° 0.5 mm 7 mps 722 mmHg 89%
    08:00 +9°C° 0.5 mm 7 mps 723 mmHg 89%
    09:00 +9°C° 0.5 mm 7 mps 723 mmHg 89%
    10:00 +9°C° 0.4 mm 6 mps 723 mmHg 89%
    11:00 +8°C° 0.4 mm 5 mps 724 mmHg 89%
    12:00 +8°C° 0.4 mm 4 mps 724 mmHg 88%
    13:00 +9°C° 0.2 mm 3 mps 724 mmHg 89%
    14:00 +9°C° 0.2 mm 3 mps 724 mmHg 90%
    15:00 +9°C° 0.2 mm 2 mps 724 mmHg 90%
    16:00 +8°C° 0.2 mm 2 mps 724 mmHg 92%
    17:00 +8°C° 0.2 mm 2 mps 724 mmHg 94%
    18:00 +7°C° 0.2 mm 2 mps 724 mmHg 96%
    19:00 +7°C° 0.2 mm 2 mps 724 mmHg 96%
    20:00 +7°C° 0.2 mm 2 mps 724 mmHg 96%
    21:00 +7°C° 0.2 mm 2 mps 724 mmHg 96%
    22:00 +7°C° 0.4 mm 2 mps 724 mmHg 96%
    23:00 +7°C° 0.4 mm 1 mps 723 mmHg 96%

    Tomorrow, 25 November, Saturday

    Time Temperature Precipitation Wind Pressure Humidity
    00:00 +7°C° 0.4 mm 1 mps 723 mmHg 97%
    01:00 +7°C° 0.3 mm 1 mps 723 mmHg 97%
    02:00 +6°C° 0.3 mm 1 mps 723 mmHg 97%
    03:00 +6°C° 0.3 mm 1 mps 722 mmHg 97%
    04:00 +6°C° 0.3 mm 1 mps 722 mmHg 96%
    05:00 +4°C° 0.3 mm 2 mps 722 mmHg 95%
    06:00 +4°C° 0.3 mm 2 mps 722 mmHg 94%
    07:00 +4°C° 0.1 mm 2 mps 723 mmHg 92%
    08:00 +3°C° 0.1 mm 3 mps 723 mmHg 90%
    09:00 +3°C° 0.1 mm 3 mps 724 mmHg 88%
    10:00 +3°C° 0 mm 3 mps 724 mmHg 85%
    11:00 +4°C° 0 mm 3 mps 724 mmHg 82%
    12:00 +4°C° 0 mm 4 mps 725 mmHg 79%
    13:00 +4°C° 0.1 mm 3 mps 725 mmHg 79%
    14:00 +3°C° 0.1 mm 3 mps 726 mmHg 80%
    15:00 +3°C° 0.1 mm 3 mps 726 mmHg 80%
    16:00 +2°C° 0.1 mm 3 mps 727 mmHg 82%
    17:00 +2°C° 0.1 mm 3 mps 727 mmHg 83%
    18:00 +1°C° 0.1 mm 3 mps 728 mmHg 85%
    19:00 +1°C° 0 mm 3 mps 728 mmHg 86%
    20:00 0°C° 0 mm 3 mps 729 mmHg 87%
    21:00 0°C° 0 mm 3 mps 729 mmHg 88%
    22:00 -1°C° 0 mm 3 mps 730 mmHg 89%
    23:00 -1°C° 0 mm 3 mps 730 mmHg 91%

    Day after tomorrow, 26 November, Sunday

    Time Temperature Precipitation Wind Pressure Humidity
    00:00 -2°C° 0 mm 3 mps 731 mmHg 92%
    01:00 -2°C° 0 mm 3 mps 731 mmHg 92%
    02:00 -2°C° 0 mm 3 mps 731 mmHg 93%
    03:00 -2°C° 0 mm 3 mps 731 mmHg 93%
    04:00 -2°C° 0 mm 3 mps 732 mmHg 93%
    05:00 -2°C° 0 mm 3 mps 732 mmHg 93%
    06:00 -2°C° 0 mm 3 mps 732 mmHg 93%
    07:00 -2°C° 0 mm 3 mps 732 mmHg 90%
    08:00 -2°C° 0 mm 4 mps 733 mmHg 86%
    09:00 -1°C° 0 mm 4 mps 733 mmHg 83%
    10:00 -1°C° 0 mm 4 mps 733 mmHg 80%
    11:00 0°C° 0 mm 5 mps 734 mmHg 76%
    12:00 +1°C° 0 mm 5 mps 734 mmHg 73%
    13:00 +1°C° 0.1 mm 4 mps 734 mmHg 75%
    14:00 +1°C° 0.1 mm 4 mps 734 mmHg 76%
    15:00 0°C° 0.1 mm 4 mps 734 mmHg 78%
    16:00 +1°C° 0 mm 3 mps 734 mmHg 82%
    17:00 0°C° 0 mm 3 mps 735 mmHg 87%
    18:00 -1°C° 0 mm 3 mps 735 mmHg 91%
    19:00 -1°C° 0 mm 3 mps 735 mmHg 92%
    20:00 -2°C° 0 mm 3 mps 735 mmHg 93%
    21:00 -2°C° 0 mm 2 mps 736 mmHg 94%
    22:00 -2°C° 0 mm 2 mps 736 mmHg 94%
    23:00 -2°C° 0 mm 2 mps 736 mmHg 94%

    27 November, Monday

    Time Temperature Precipitation Wind Pressure Humidity
    00:00 -2°C° 0 mm 2 mps 736 mmHg 94%
    01:00 -2°C° 0 mm 2 mps 736 mmHg 93%
    02:00 -2°C° 0 mm 2 mps 736 mmHg 93%
    03:00 -2°C° 0 mm 3 mps 736 mmHg 92%
    04:00 -2°C° 0 mm 3 mps 736 mmHg 92%
    05:00 -2°C° 0 mm 3 mps 736 mmHg 92%
    06:00 -2°C° 0 mm 3 mps 736 mmHg 92%
    07:00 -2°C° 0 mm 3 mps 736 mmHg 89%
    08:00 -2°C° 0 mm 4 mps 736 mmHg 86%
    09:00 -1°C° 0 mm 4 mps 736 mmHg 82%
    10:00 0°C° 0 mm 4 mps 736 mmHg 80%
    11:00 +1°C° 0 mm 5 mps 736 mmHg 78%
    12:00 +2°C° 0 mm 5 mps 735 mmHg 76%
    13:00 +1°C° 0 mm 5 mps 735 mmHg 79%
    14:00 +1°C° 0 mm 5 mps 734 mmHg 81%
    15:00 +1°C° 0 mm 4 mps 734 mmHg 84%
    16:00 0°C° 0 mm 5 mps 733 mmHg 86%
    17:00 0°C° 0 mm 5 mps 733 mmHg 88%
    18:00 -1°C° 0 mm 5 mps 733 mmHg 90%
    19:00 0°C° 0 mm 5 mps 733 mmHg 89%
    20:00 0°C° 0 mm 5 mps 732 mmHg 89%
    21:00 0°C° 0 mm 5 mps 732 mmHg 88%
    22:00 0°C° 0 mm 5 mps 732 mmHg 89%
    23:00 0°C° 0 mm 5 mps 731 mmHg 90%

    28 November, Tuesday

    Time Temperature Precipitation Wind Pressure Humidity
    00:00 0°C° 0 mm 5 mps 730 mmHg 90%
    01:00 0°C° 0 mm 5 mps 730 mmHg 90%
    02:00 -1°C° 0 mm 5 mps 729 mmHg 90%
    03:00 -1°C° 0 mm 5 mps 729 mmHg 90%
    04:00 -2°C° 0 mm 6 mps 728 mmHg 89%
    05:00 -2°C° 0 mm 6 mps 727 mmHg 88%
    06:00 -2°C° 0 mm 6 mps 727 mmHg 87%
    07:00 -2°C° 0 mm 6 mps 726 mmHg 83%
    08:00 -2°C° 0 mm 7 mps 725 mmHg 79%
    09:00 -2°C° 0 mm 7 mps 725 mmHg 76%
    10:00 -1°C° 0.2 mm 7 mps 724 mmHg 74%
    11:00 -1°C° 0.2 mm 8 mps 723 mmHg 72%
    12:00 0°C° 0.2 mm 8 mps 722 mmHg 70%
    13:00 0°C° 0.7 mm 7 mps 722 mmHg 75%
    14:00 -1°C° 0.7 mm 7 mps 721 mmHg 80%
    15:00 -1°C° 0.7 mm 7 mps 720 mmHg 85%
    16:00 -1°C° 0.2 mm 7 mps 720 mmHg 87%
    17:00 -1°C° 0.2 mm 7 mps 720 mmHg 89%
    18:00 0°C° 0.2 mm 7 mps 720 mmHg 91%
    19:00 +1°C° 0.1 mm 6 mps 719 mmHg 91%
    20:00 +1°C° 0.1 mm 6 mps 719 mmHg 92%
    21:00 +1°C° 0.1 mm 6 mps 719 mmHg 92%
    22:00 +1°C° 0.3 mm 6 mps 719 mmHg 93%
    23:00 +1°C° 0.3 mm 6 mps 719 mmHg 94%

    29 November, Wednesday

    Time Temperature Precipitation Wind Pressure Humidity
    00:00 +1°C° 0.3 mm 5 mps 719 mmHg 95%
    01:00 +1°C° 0.3 mm 5 mps 719 mmHg 95%
    02:00 +1°C° 0.3 mm 4 mps 719 mmHg 95%
    03:00 0°C° 0.3 mm 4 mps 719 mmHg 96%
    04:00 0°C° 0.3 mm 4 mps 719 mmHg 96%
    05:00 +1°C° 0.3 mm 3 mps 719 mmHg 96%
    06:00 +1°C° 0.3 mm 3 mps 719 mmHg 96%
    07:00 0°C° 0.1 mm 4 mps 720 mmHg 95%
    08:00 +1°C° 0.1 mm 4 mps 720 mmHg 94%
    09:00 +1°C° 0.1 mm 5 mps 720 mmHg 92%
    10:00 +1°C° 1 mm 5 mps 721 mmHg 92%
    11:00 +1°C° 1 mm 5 mps 721 mmHg 92%
    12:00 +1°C° 1 mm 5 mps 721 mmHg 92%
    13:00 +1°C° 0.7 mm 5 mps 721 mmHg 92%
    14:00 +1°C° 0.7 mm 4 mps 722 mmHg 91%
    15:00 +2°C° 0.7 mm 3 mps 722 mmHg 91%
    16:00 +1°C° 0.1 mm 3 mps 723 mmHg 92%
    17:00 +1°C° 0.1 mm 3 mps 723 mmHg 93%
    18:00 0°C° 0.1 mm 3 mps 724 mmHg 94%
    19:00 0°C° 0 mm 3 mps 724 mmHg 95%
    20:00 0°C° 0 mm 3 mps 725 mmHg 95%
    21:00 -1°C° 0 mm 3 mps 725 mmHg 95%
    22:00 -1°C° 0 mm 3 mps 725 mmHg 95%
    23:00 -2°C° 0 mm 3 mps 726 mmHg 95%
    Show more